Date String (YYYY-MM-DD hh:mm:ss) UTC,Instrument flags,Ambient pressure (hPa),Sample flow (lpm),Bypass flow (lpm),Sample temperature (°C),Ambient temperature (°C),ASC tube jacket temperature (°C),LED temperature (°C),Box temperature (°C),Sample RH (%),Span deviation,Mass concentration (μg/m³),Mass concentration (μg/m³),Mass concentration (μg/m³)
DateTimeUTC,F1_M11,P_M11,Q1_M11,Q2_M11,T1_M11,T2_M11,T3_M11,T4_M11,T5_M11,U1_M11,ZSPAN_M11,X0_M11,X2_M11,X1_M11
2022-04-10 00:00:00,,0811.7,4.99,0.00,29.8,28.7,00.0,38.6,31.6,05.7,0000.0,0011.89,0004.32,0002.17
2022-04-10 00:01:00,,0811.7,5.01,0.00,29.8,28.7,00.0,38.6,31.6,05.7,0000.0,0011.74,0004.33,0002.16
2022-04-10 00:02:00,,0811.6,4.99,0.00,29.8,28.8,00.0,38.6,31.6,05.5,0000.0,0011.32,0004.36,0002.16
2022-04-10 00:03:00,,0811.6,5.01,0.00,29.8,28.8,00.0,38.7,31.7,05.3,0000.0,0011.07,0004.35,0002.13
2022-04-10 00:04:00,,0811.5,4.98,0.00,29.8,28.9,00.0,38.7,31.6,05.5,0000.0,0011.01,0004.32,0002.13
2022-04-10 00:05:00,,0811.5,5.00,0.00,29.8,28.9,00.0,38.7,31.6,05.4,0000.0,0010.88,0004.33,0002.13
2022-04-10 00:06:00,,0811.4,5.00,0.00,29.8,27.7,00.0,38.7,31.4,05.4,0000.0,0010.90,0004.29,0002.13
2022-04-10 00:07:00,,0811.4,4.99,0.00,29.7,26.1,00.0,38.7,31.0,05.5,0000.0,0011.53,0004.30,0002.13
2022-04-10 00:08:00,,0811.4,5.00,0.00,29.6,26.1,00.0,38.7,31.0,05.5,0000.0,0011.48,0004.30,0002.13
2022-04-10 00:09:00,,0811.4,5.00,0.00,29.5,26.5,00.0,38.6,31.1,05.5,0000.0,0011.05,0004.25,0002.13
2022-04-10 00:10:00,,0811.4,4.99,0.00,29.5,26.9,00.0,38.6,31.2,05.4,0000.0,0010.95,0004.29,0002.14
2022-04-10 00:11:00,,0811.4,4.99,0.00,29.5,27.3,00.0,38.5,31.2,05.5,0000.0,0010.91,0004.28,0002.14
2022-04-10 00:12:00,,0811.5,5.02,0.00,29.6,27.6,00.0,38.5,31.3,05.5,0000.0,0011.03,0004.28,0002.14
2022-04-10 00:13:00,,0811.5,4.98,0.00,29.6,27.8,00.0,38.5,31.3,05.6,0000.0,0011.70,0004.26,0002.13
2022-04-10 00:14:00,,0811.5,5.01,0.00,29.6,28.1,00.0,38.5,31.3,05.4,0000.0,0012.42,0004.28,0002.14
2022-04-10 00:15:00,,0811.4,4.99,0.00,29.6,28.2,00.0,38.5,31.4,05.4,0000.0,0012.50,0004.31,0002.14
2022-04-10 00:16:00,,0811.4,4.99,0.00,29.6,28.4,00.0,38.5,31.4,05.4,0000.0,0012.56,0004.31,0002.14
2022-04-10 00:17:00,,0811.4,5.01,0.00,29.6,28.5,00.0,38.5,31.4,05.4,0000.0,0012.84,0004.37,0002.15
2022-04-10 00:18:00,,0811.4,4.99,0.00,29.7,28.6,00.0,38.6,31.5,05.4,0000.0,0012.38,0004.34,0002.13
2022-04-10 00:19:00,,0811.4,5.00,0.00,29.7,28.7,00.0,38.6,31.4,05.5,0000.0,0012.53,0004.33,0002.12
2022-04-10 00:20:00,,0811.5,5.01,0.00,29.7,28.7,00.0,38.6,31.5,05.5,0000.0,0012.84,0004.35,0002.13
2022-04-10 00:21:00,,0811.4,4.99,0.00,29.7,28.8,00.0,38.6,31.5,05.5,0000.0,0013.00,0004.35,0002.13
2022-04-10 00:22:00,,0811.4,4.98,0.00,29.7,28.8,00.0,38.6,31.5,05.6,0000.0,0013.19,0004.39,0002.11
2022-04-10 00:23:00,,0811.4,5.02,0.00,29.7,28.9,00.0,38.6,31.5,05.5,0000.0,0013.29,0004.41,0002.12
2022-04-10 00:24:00,,0811.4,4.99,0.00,29.7,28.7,00.0,38.6,31.5,05.5,0000.0,0012.89,0004.39,0002.12
2022-04-10 00:25:00,,0811.4,5.01,0.00,29.7,26.8,00.0,38.6,31.1,05.4,0000.0,0012.27,0004.37,0002.11
2022-04-10 00:26:00,,0811.4,4.99,0.00,29.5,25.9,00.0,38.6,30.9,05.5,0000.0,0012.13,0004.32,0002.09
2022-04-10 00:27:00,,0811.4,5.00,0.00,29.5,26.1,00.0,38.6,30.9,05.5,0000.0,0012.16,0004.33,0002.10
2022-04-10 00:28:00,,0811.3,5.01,0.00,29.4,26.6,00.0,38.5,31.0,05.6,0000.0,0012.20,0004.31,0002.10
2022-04-10 00:29:00,,0811.3,5.01,0.00,29.4,26.9,00.0,38.5,31.1,05.5,0000.0,0012.09,0004.29,0002.09
2022-04-10 00:30:00,,0811.3,4.99,0.00,29.4,27.3,00.0,38.5,31.1,05.6,0000.0,0011.75,0004.27,0002.09
2022-04-10 00:31:00,,0811.3,5.01,0.00,29.4,27.6,00.0,38.4,31.1,05.5,0000.0,0011.76,0004.27,0002.09
2022-04-10 00:32:00,,0811.2,4.99,0.00,29.4,27.8,00.0,38.4,31.1,05.4,0000.0,0011.32,0004.22,0002.07
2022-04-10 00:33:00,,0811.3,5.01,0.00,29.4,28.0,00.0,38.4,31.2,05.5,0000.0,0011.14,0004.15,0002.06
2022-04-10 00:34:00,,0811.3,4.99,0.00,29.5,28.1,00.0,38.4,31.2,05.5,0000.0,0011.47,0004.08,0002.03
2022-04-10 00:35:00,,0811.2,5.00,0.00,29.5,28.2,00.0,38.4,31.2,05.4,0000.0,0010.99,0004.08,0002.01
2022-04-10 00:36:00,,0811.2,5.00,0.00,29.5,28.3,00.0,38.4,31.2,05.5,0000.0,0010.95,0004.11,0002.01
2022-04-10 00:37:00,,0811.2,5.00,0.00,29.5,28.4,00.0,38.4,31.2,05.3,0000.0,0010.95,0004.10,0002.02
2022-04-10 00:38:00,,0811.2,5.01,0.00,29.5,28.5,00.0,38.4,31.2,05.3,0000.0,0010.98,0004.03,0002.00
2022-04-10 00:39:00,,0811.1,4.99,0.00,29.5,28.5,00.0,38.5,31.3,05.3,0000.0,0011.11,0003.97,0002.00
2022-04-10 00:40:00,,0811.2,5.02,0.00,29.5,28.6,00.0,38.5,31.3,05.3,0000.0,0011.36,0003.99,0002.00
2022-04-10 00:41:00,,0811.2,5.01,0.00,29.5,28.6,00.0,38.5,31.3,05.3,0000.0,0011.46,0003.96,0002.00
2022-04-10 00:42:00,,0811.1,4.98,0.00,29.5,28.6,00.0,38.5,31.3,05.3,0000.0,0011.50,0003.99,0002.00
2022-04-10 00:43:00,,0811.2,5.00,0.00,29.5,28.7,00.0,38.5,31.3,05.2,0000.0,0011.45,0004.01,0002.00
2022-04-10 00:44:00,,0811.1,5.02,0.00,29.6,28.7,00.0,38.5,31.3,05.2,0000.0,0011.88,0004.05,0002.02
2022-04-10 00:45:00,,0811.1,5.01,0.00,29.6,28.7,00.0,38.5,31.4,05.2,0000.0,0011.42,0004.09,0002.03
2022-04-10 00:46:00,,0811.1,4.99,0.00,29.6,28.7,00.0,38.5,31.4,05.1,0000.0,0011.44,0004.10,0002.05
2022-04-10 00:47:00,,0811.1,5.00,0.00,29.6,28.7,00.0,38.5,31.4,05.2,0000.0,0011.34,0004.04,0002.04
2022-04-10 00:48:00,,0811.1,5.01,0.00,29.6,28.8,00.0,38.5,31.4,05.2,0000.0,0011.37,0004.07,0002.04
2022-04-10 00:49:00,,0811.1,4.99,0.00,29.6,28.8,00.0,38.5,31.4,05.2,0000.0,0011.27,0004.14,0002.03
2022-04-10 00:50:00,,0811.1,5.00,0.00,29.6,28.0,00.0,38.5,31.2,05.2,0000.0,0010.89,0004.14,0002.01
2022-04-10 00:51:00,,0811.2,4.99,0.00,29.5,25.9,00.0,38.5,30.8,05.2,0000.0,0010.53,0004.06,0002.01
2022-04-10 00:52:00,,0811.2,5.02,0.00,29.4,25.7,00.0,38.5,30.7,05.3,0000.0,0010.18,0004.04,0002.00
2022-04-10 00:53:00,,0811.2,4.98,0.00,29.3,26.0,00.0,38.4,30.7,05.3,0000.0,0009.65,0003.99,0001.99
2022-04-10 00:54:00,,0811.1,5.00,0.00,29.3,26.4,00.0,38.4,30.9,05.4,0000.0,0009.68,0004.00,0001.98
2022-04-10 00:55:00,,0811.2,5.00,0.00,29.3,26.8,00.0,38.4,30.9,05.4,0000.0,0009.60,0003.99,0001.97
2022-04-10 00:56:00,,0811.2,5.01,0.00,29.3,27.2,00.0,38.3,30.9,05.4,0000.0,0009.52,0003.96,0001.97
2022-04-10 00:57:00,,0811.2,4.99,0.00,29.3,27.4,00.0,38.3,31.0,05.4,0000.0,0009.36,0003.92,0001.96
2022-04-10 00:58:00,,0811.2,5.01,0.00,29.3,27.7,00.0,38.3,31.0,05.4,0000.0,0009.37,0003.94,0001.96
2022-04-10 00:59:00,,0811.2,4.99,0.00,29.3,27.9,00.0,38.3,31.0,05.4,0000.0,0009.30,0003.94,0001.96
